Cotulla, TX

7:49 PM CDT on October 16, 2019 (GMT -0500)
Cotulla-La Salle County

Weather History for KCOT - September, 2019

Change the Weather History Date:

Wednesday, September 18, 2019

  Actual Average Record
Temperature  
Mean Temperature 90 °F -  
Max Temperature 106 °F 89 °F 102 °F (2016)
Min Temperature 75 °F 69 °F 60 °F (2000)
Cooling Degree Days 24    
Growing Degree Days 40 (Base 50)    
Moisture  
Dew Point 67 °F    
Average Humidity 52    
Maximum Humidity 90    
Minimum Humidity 20    
Precipitation  
Precipitation 0.00 in - - ()
Sea Level Pressure  
Sea Level Pressure 29.82 in    
Wind  
Wind Speed 4 mph ()    
Max Wind Speed 9 mph    
Max Gust Speed -    
Visibility 10.0 miles    
Events      
Averages and records for this station are not official NWS values.
T = Trace of Precipitation, MM = Missing Value Source: Averaged Metar Reports

Daily Weather History Graph

Daily Weather History Graph

Search for Another Location

Airport or City:

Astronomy

Sep. 18, 2019 Rise Set
Actual Time 7:23 AM CDT 7:38 PM CDT
Civil Twilight 6:59 AM CDT 8:01 PM CDT
Nautical Twilight 6:32 AM CDT 8:29 PM CDT
Astronomical Twilight 6:04 AM CDT 8:57 PM CDT
Moon 10:33 PM CDT (9/18) 11:09 AM CDT (9/18)
Length of Visible Light 13h 02m
Length of Day
12h 15m
Waning Gibbous, 82% of the Moon is Illuminated
Sep 18
Waning Gibbous
Sep 21
Last Quarter
Sep 28
New
Oct 5
First Quarter
Oct 13
Full

Hourly Weather History & Observations

Time (CDT) Temp. Heat Index Dew Point Humidity Pressure Visibility Wind Dir Wind Speed Gust Speed Precip Events Conditions
12:53 AM 82.9 °F 87.5 °F 71.1 °F 67% 29.85 in 10.0 mi East 6.9 mph - N/A   Clear
1:53 AM 81.0 °F 85.2 °F 72.0 °F 74% 29.85 in 10.0 mi East 6.9 mph - N/A   Clear
2:53 AM 80.1 °F 84.5 °F 73.9 °F 81% 29.85 in 10.0 mi East 6.9 mph - N/A   Clear
3:53 AM 79.0 °F - 73.0 °F 82% 29.83 in 10.0 mi East 3.5 mph - N/A   Clear
4:53 AM 78.1 °F - 73.9 °F 87% 29.83 in 10.0 mi East 3.5 mph - N/A   Clear
5:53 AM 77.0 °F - 73.9 °F 90% 29.82 in 10.0 mi NE 3.5 mph - N/A   Clear
6:53 AM 75.9 °F - 72.0 °F 87% 29.84 in 10.0 mi Calm Calm - N/A   Clear
7:53 AM 75.9 °F - 72.0 °F 87% 29.87 in 10.0 mi ENE 5.8 mph - N/A   Clear
8:53 AM 82.0 °F 86.7 °F 72.0 °F 71% 29.88 in 10.0 mi ESE 4.6 mph - N/A   Clear
9:53 AM 86.0 °F 91.5 °F 71.1 °F 61% 29.88 in 10.0 mi Variable 3.5 mph - N/A   Clear
10:53 AM 91.0 °F 96.6 °F 70.0 °F 50% 29.88 in 10.0 mi Variable 3.5 mph - N/A   Clear
11:53 AM 96.1 °F 101.0 °F 68.0 °F 40% 29.88 in 10.0 mi Calm Calm - N/A   Clear
12:53 PM 98.1 °F 100.7 °F 64.0 °F 33% 29.86 in 10.0 mi Variable 3.5 mph - N/A   Partly Cloudy
1:53 PM 102.0 °F 103.3 °F 61.0 °F 26% 29.83 in 10.0 mi Variable 4.6 mph - N/A   Scattered Clouds
2:53 PM 102.0 °F 102.7 °F 60.1 °F 25% 29.80 in 10.0 mi Variable 4.6 mph - N/A   Overcast
3:53 PM 102.9 °F 102.4 °F 57.0 °F 22% 29.77 in 10.0 mi Variable 3.5 mph - N/A   Mostly Cloudy
4:53 PM 104.0 °F 103.4 °F 57.0 °F 21% 29.75 in 10.0 mi Calm Calm - N/A   Clear
5:53 PM 104.0 °F 102.9 °F 55.9 °F 20% 29.74 in 10.0 mi Variable 6.9 mph - N/A   Clear
6:53 PM 100.9 °F 100.5 °F 57.9 °F 24% 29.74 in 10.0 mi South 6.9 mph - N/A   Mostly Cloudy
7:53 PM 97.0 °F 96.9 °F 60.1 °F 29% 29.75 in 10.0 mi ESE 8.1 mph - N/A   Clear
8:53 PM 93.9 °F 95.2 °F 63.0 °F 36% 29.77 in 10.0 mi SE 6.9 mph - N/A   Clear
9:53 PM 91.9 °F 95.4 °F 66.9 °F 44% 29.79 in 10.0 mi SSE 9.2 mph - N/A   Clear
10:53 PM 90.0 °F 93.6 °F 68.0 °F 48% 29.81 in 10.0 mi SSE 9.2 mph - N/A   Clear
11:53 PM 89.1 °F 93.7 °F 69.1 °F 52% 29.82 in 10.0 mi South 6.9 mph - N/A   Clear